Location: Prescott
(34.5400°N, 112.4680°W)
Time: 20:49:54
(UTC-07:00)

Amateur Radio Satellites - All Passes

Search period start: 16 April 2014 20:19
Search period end: 17 April 2014 20:19
Location: Prescott, 34.5400°N, 112.4680°W

Satellite Date Start Highest point End Downlink Frequencies (MHz)
Time Altitude Azimuth
Saudisat 1A 16 Apr 20:39:23 20:43:46 62° 59° (ENE) 20:48:04 436.775 MHz
HO-68 16 Apr 20:43:59 20:51:05 74° 72° (ENE) 20:58:12 435.675 MHz FM
FUNcube-1 16 Apr 21:09:54 21:11:15 11° 67° (ENE) 21:12:35 145.950 - 145.970 MHz USB
Oscar 11 16 Apr 21:25:20 21:29:35 65° 76° (ENE) 21:33:52 145.825 FM, Beacon 2401.500 USB
ISS 16 Apr 21:39:34 21:40:46 12° 26° (NNE) 21:41:59 145.800 FM
MaSat-1 16 Apr 22:12:09 22:15:03 32° 294° (WNW) 22:17:36 437.345 MHz
HO-68 16 Apr 22:35:02 22:39:19 17° 267° (W) 22:43:37 435.675 MHz FM
FUNcube-1 16 Apr 22:43:05 22:47:14 50° 260° (W) 22:51:19 145.950 - 145.970 MHz USB
ISS 16 Apr 23:14:39 23:18:00 78° 43° (NE) 23:21:21 145.800 FM
PCSat 16 Apr 23:35:58 23:39:15 17° 104° (ESE) 23:42:33 145.825 MHz
SO-50 17 Apr 00:20:45 00:24:34 25° 52° (NE) 00:28:25 436.795 FM
Sapphire 17 Apr 00:31:44 00:36:59 54° 112° (ESE) 00:42:15 437.095 MHz 1200 baud AX-25 AFSK
Oscar 10/S400 17 Apr 00:46:08 00:59:42 20° 136° (SE) 01:19:25 145.825 - 145.975 CW/USB, Beacon 145.810 USB
Oscar 19 17 Apr 01:03:35 01:06:55 17° 94° (E) 01:10:15 437.125 CW, 437.150 USB
Oscar 16 17 Apr 01:10:48 01:14:48 22° 95° (E) 01:18:47 437.025 USB, Beacon 2401.1428
PCSat 17 Apr 01:16:53 01:22:09 54° 299° (WNW) 01:27:28 145.825 MHz
OPAL 17 Apr 01:27:02 01:30:57 24° 66° (ENE) 01:34:55 ?
Uribyol 2 17 Apr 01:40:59 01:44:57 22° 95° (E) 01:48:54 436.500 FM
SO-50 17 Apr 02:00:58 02:05:08 33° 247° (WSW) 02:09:21 436.795 FM
Sapphire 17 Apr 02:16:54 02:20:43 19° 308° (NW) 02:24:33 437.095 MHz 1200 baud AX-25 AFSK
AO-27 17 Apr 02:18:55 02:23:58 52° 100° (E) 02:28:59 436.795 MHz FM
KITSAT 1 17 Apr 02:20:08 02:27:41 45° 109° (ESE) 02:35:16 435.175 FM
ITAMSAT 1 17 Apr 02:30:16 02:35:26 67° 102° (ESE) 02:40:34 435.822 SSB
Oscar 19 17 Apr 02:41:29 02:46:27 47° 288° (WNW) 02:51:24 437.125 CW, 437.150 USB
TMSAT-1 17 Apr 02:46:51 02:50:36 19° 94° (E) 02:54:19 436.925 FM
Oscar 16 17 Apr 02:49:27 02:54:11 37° 289° (WNW) 02:58:55 437.025 USB, Beacon 2401.1428
UOSAT-12 17 Apr 02:58:56 03:03:31 50° 57° (ENE) 03:08:03 437.025 FM, 437.400 FM
AO-Echo 17 Apr 03:04:58 03:09:43 65° 285° (WNW) 03:14:21 ?
OPAL 17 Apr 03:05:07 03:09:36 34° 260° (W) 03:14:11 ?
Uribyol 2 17 Apr 03:19:46 03:24:28 37° 289° (WNW) 03:29:11 436.500 FM
Uosat F 17 Apr 03:22:48 03:25:20 14° 93° (E) 03:27:52 435.120 FM
Gurwin Techsat 1B 17 Apr 03:35:28 03:40:48 88° 103° (ESE) 03:46:06 435.225 FM
AO-27 17 Apr 03:59:52 04:03:00 16° 295° (WNW) 04:06:09 436.795 MHz FM
ITAMSAT 1 17 Apr 04:12:04 04:14:18 13° 297° (WNW) 04:16:32 435.822 SSB
KITSAT 1 17 Apr 04:15:44 04:23:07 38° 307° (NW) 04:30:34 435.175 FM
TMSAT-1 17 Apr 04:25:41 04:30:39 43° 288° (WNW) 04:35:37 436.925 FM
UOSAT-12 17 Apr 04:40:35 04:43:13 15° 252° (WSW) 04:45:51 437.025 FM, 437.400 FM
JAS-1B 17 Apr 04:41:34 04:47:14 80° 285° (WNW) 04:53:10 435.800 - 435.900 CW/SSB
AO-7 17 Apr 04:55:41 05:03:59 68° 105° (ESE) 05:12:15 29.400 - 29.500 MHz
Uosat F 17 Apr 04:59:32 05:04:24 53° 287° (WNW) 05:09:15 435.120 FM
STRAND 1 17 Apr 05:39:03 05:43:23 28° 69° (ENE) 05:47:42 ?
Hamsat 17 Apr 06:13:22 06:17:22 35° 98° (E) 06:21:22 145.90 MHz
RS-15 17 Apr 06:24:53 06:35:56 57° 111° (ESE) 06:46:35 29.354 - 29.394 USB, Beacon 29.352 USB
MaSat-1 17 Apr 06:40:02 06:41:04 11° 62° (ENE) 06:42:09 437.345 MHz
AO-7 17 Apr 06:49:45 06:56:02 25° 301° (WNW) 07:02:20 29.400 - 29.500 MHz
STRAND 1 17 Apr 07:18:05 07:22:27 28° 263° (W) 07:26:50 ?
JAS-2 17 Apr 07:21:40 07:26:58 56° 101° (E) 07:32:49 435.800 - 435.900 CW/SSB, 435.910 FM
SO-67 17 Apr 07:44:08 07:47:39 83° 102° (ESE) 07:51:08 435.3500 MHz FM
Hamsat 17 Apr 07:50:15 07:53:03 17° 291° (WNW) 07:55:51 145.90 MHz
MaSat-1 17 Apr 08:16:42 08:19:26 27° 249° (WSW) 08:22:36 437.345 MHz
HO-68 17 Apr 08:17:53 08:21:54 16° 92° (E) 08:25:53 435.675 MHz FM
RS-15 17 Apr 08:38:18 08:48:36 39° 311° (NW) 08:58:41 29.354 - 29.394 USB, Beacon 29.352 USB
JAS-2 17 Apr 09:08:29 09:11:43 16° 294° (WNW) 09:15:07 435.800 - 435.900 CW/SSB, 435.910 FM
Oscar 11 17 Apr 09:17:54 09:20:32 16° 94° (E) 09:23:10 145.825 FM, Beacon 2401.500 USB
Sapphire 17 Apr 09:23:55 09:28:05 22° 53° (NE) 09:32:13 437.095 MHz 1200 baud AX-25 AFSK
PANSAT 17 Apr 09:37:51 09:41:01 24° 168° (SSE) 09:44:10 not established
HO-68 17 Apr 10:03:00 10:10:11 79° 287° (WNW) 10:17:21 435.675 MHz FM
PCSat 17 Apr 10:08:15 10:13:36 56° 61° (ENE) 10:18:53 145.825 MHz
KITSAT 1 17 Apr 10:18:59 10:22:43 14° 37° (NE) 10:26:26 435.175 FM
FUNcube-1 17 Apr 10:35:44 10:39:42 38° 99° (E) 10:43:44 145.950 - 145.970 MHz USB
Saudisat 1A 17 Apr 10:42:47 10:46:54 38° 114° (ESE) 10:51:02 436.775 MHz
Oscar 11 17 Apr 10:52:49 10:56:49 36° 287° (WNW) 11:00:49 145.825 FM, Beacon 2401.500 USB
RS-15 17 Apr 11:01:09 11:05:25 13° 343° (NNW) 11:09:41 29.354 - 29.394 USB, Beacon 29.352 USB
Sapphire 17 Apr 11:06:33 11:11:42 46° 249° (WSW) 11:16:49 437.095 MHz 1200 baud AX-25 AFSK
PANSAT 17 Apr 11:17:21 11:20:51 33° 180° (S) 11:24:20 not established
PCSat 17 Apr 11:53:17 11:56:28 16° 256° (WSW) 11:59:39 145.825 MHz
HO-68 17 Apr 11:53:54 11:56:43 13° 304° (NW) 11:59:33 435.675 MHz FM
KITSAT 1 17 Apr 12:11:55 12:19:56 61° 59° (ENE) 12:27:51 435.175 FM
FUNcube-1 17 Apr 12:13:20 12:15:49 15° 292° (WNW) 12:18:18 145.950 - 145.970 MHz USB
Oscar 19 17 Apr 12:17:28 12:20:52 18° 66° (ENE) 12:24:17 437.125 CW, 437.150 USB
Saudisat 1A 17 Apr 12:23:18 12:26:37 20° 309° (NW) 12:29:56 436.775 MHz
Oscar 16 17 Apr 12:24:41 12:28:39 23° 68° (ENE) 12:32:38 437.025 USB, Beacon 2401.1428
AO-Echo 17 Apr 12:39:02 12:40:52 12° 64° (ENE) 12:42:40 ?
Uribyol 2 17 Apr 12:55:43 12:59:48 24° 68° (ENE) 13:03:52 436.500 FM
PANSAT 17 Apr 12:57:34 13:00:40 23° 193° (SSW) 13:03:46 not established
Gurwin Techsat 1B 17 Apr 13:18:12 13:19:08 10° 62° (ENE) 13:20:03 435.225 FM
RS-15 17 Apr 13:19:33 13:25:00 15° 23° (NNE) 13:30:29 29.354 - 29.394 USB, Beacon 29.352 USB
AO-27 17 Apr 13:33:35 13:38:39 56° 73° (ENE) 13:43:44 436.795 MHz FM
ITAMSAT 1 17 Apr 13:44:47 13:49:56 71° 75° (ENE) 13:55:06 435.822 SSB
Oscar 19 17 Apr 13:54:54 13:59:48 46° 261° (W) 14:04:46 437.125 CW, 437.150 USB
Oscar 10/S400 17 Apr 13:56:33 15:12:17 20° 273° (W) 17:25:34 145.825 - 145.975 CW/USB, Beacon 145.810 USB
Oscar 16 17 Apr 14:03:06 14:07:45 35° 262° (W) 14:12:27 437.025 USB, Beacon 2401.1428
TMSAT-1 17 Apr 14:04:23 14:08:23 22° 67° (ENE) 14:12:23 436.925 FM
AO-7 17 Apr 14:04:38 14:07:29 12° 51° (NE) 14:10:20 29.400 - 29.500 MHz
KITSAT 1 17 Apr 14:08:26 14:14:42 26° 256° (WSW) 14:20:57 435.175 FM
AO-Echo 17 Apr 14:13:41 14:18:59 76° 258° (WSW) 14:24:11 ?
ISS 17 Apr 14:19:44 14:21:37 14° 127° (SE) 14:23:30 145.800 FM
Uosat F 17 Apr 14:33:12 14:35:52 15° 64° (ENE) 14:38:33 435.120 FM
SO-50 17 Apr 14:33:55 14:36:38 16° 109° (ESE) 14:39:21 436.795 FM
Uribyol 2 17 Apr 14:34:23 14:39:03 34° 262° (W) 14:43:44 436.500 FM
Gurwin Techsat 1B 17 Apr 14:53:00 14:58:19 85° 257° (WSW) 15:03:39 435.225 FM
AO-27 17 Apr 15:15:44 15:18:27 14° 267° (W) 15:21:11 436.795 MHz FM
OPAL 17 Apr 15:17:46 15:23:01 84° 105° (ESE) 15:28:14 ?
JAS-1B 17 Apr 15:20:49 15:29:17 66° 73° (ENE) 15:36:21 435.800 - 435.900 CW/SSB
ITAMSAT 1 17 Apr 15:28:42 15:29:51 11° 269° (W) 15:31:01 435.822 SSB
RS-15 17 Apr 15:30:34 15:41:04 48° 52° (NE) 15:51:47 29.354 - 29.394 USB, Beacon 29.352 USB
TMSAT-1 17 Apr 15:43:06 15:48:01 39° 262° (W) 15:52:57 436.925 FM
AO-7 17 Apr 15:50:33 15:58:43 67° 69° (ENE) 16:06:54 29.400 - 29.500 MHz
ISS 17 Apr 15:54:52 15:58:04 42° 321° (NW) 16:01:17 145.800 FM
Uosat F 17 Apr 16:09:13 16:14:09 57° 259° (W) 16:19:06 435.120 FM
SO-50 17 Apr 16:12:33 16:16:48 42° 303° (WNW) 16:21:06 436.795 FM
OPAL 17 Apr 16:59:54 17:01:08 11° 300° (WNW) 17:02:22 ?
Hamsat 17 Apr 17:04:45 17:07:24 17° 68° (ENE) 17:10:04 145.90 MHz
UOSAT-12 17 Apr 17:07:10 17:11:12 33° 112° (ESE) 17:15:19 437.025 FM, 437.400 FM
JAS-1B 17 Apr 17:13:50 17:19:57 22° 264° (W) 17:25:27 435.800 - 435.900 CW/SSB
JAS-2 17 Apr 17:33:12 17:36:26 15° 66° (ENE) 17:39:32 435.800 - 435.900 CW/SSB, 435.910 FM
RS-15 17 Apr 17:43:07 17:53:14 45° 251° (WSW) 18:03:42 29.354 - 29.394 USB, Beacon 29.352 USB
AO-7 17 Apr 17:45:51 17:51:57 23° 265° (W) 17:58:06 29.400 - 29.500 MHz
STRAND 1 17 Apr 17:55:03 17:56:57 12° 92° (E) 17:58:50 ?
SO-67 17 Apr 18:15:45 18:17:55 16° 70° (ENE) 18:20:06 435.3500 MHz FM
Hamsat 17 Apr 18:39:19 18:43:05 33° 263° (W) 18:46:55 145.90 MHz
UOSAT-12 17 Apr 18:47:43 18:51:22 23° 309° (NW) 18:55:06 437.025 FM, 437.400 FM
Saudisat 1A 17 Apr 19:14:19 19:16:27 13° 47° (NE) 19:18:34 436.775 MHz
JAS-2 17 Apr 19:15:03 19:21:08 62° 258° (WSW) 19:26:36 435.800 - 435.900 CW/SSB, 435.910 FM
STRAND 1 17 Apr 19:31:28 19:36:30 63° 286° (WNW) 19:41:31 ?
SO-67 17 Apr 19:48:06 19:50:53 22° 264° (W) 19:53:40 435.3500 MHz FM
